EW1268 Weather Reports


time (UTC)temp
C
wind
direction
speed
KPH
gust
KPH
rain 1hr
cm
rain 24hr
cm
rain mn
cm
humidity
%
barometer
mb
20260502170514 21 119 6.4 16.1 0.00 5.64 0.00 69 1020.9
20260502164003 21 319 4.8 20.9 0.00 5.89 0.00 73 1020.9
20260502163506 20 161 6.4 19.3 0.00 5.89 0.00 76 1020.9
20260502163024 20 9 6.4 20.9 0.00 6.05 0.00 73 1020.8
20260502162510 20 116 6.4 20.9 0.00 6.05 0.00 72 1020.9
20260502162011 20 32 6.4 16.1 0.00 7.44 0.00 77 1020.8
20260502161525 20 309 6.4 17.7 0.00 7.72 0.00 74 1020.9
20260502161011 20 337 4.8 20.9 0.00 7.72 0.00 74 1020.8
20260502160504 20 298 6.4 22.5 0.00 7.72 0.00 73 1020.8
20260502152010 18 90 4.8 14.5 0.00 7.75 0.00 81 1020.6
20260502151537 17 332 3.2 14.5 0.00 7.77 0.00 83 1020.6
20260502151006 17 153 4.8 27.4 0.00 7.77 0.00 82 1020.7
20260502150514 17 9 6.4 27.4 0.00 7.77 0.00 82 1020.8
20260502130509 12 301 3.2 14.5 0.00 7.85 0.00 93 1019.6
20260502123509 11 46 3.2 8.0 0.00 7.87 0.00 93 1019.1
20260502123027 11 34 1.6 8.0 0.00 7.87 0.00 93 1018.9
20260502122510 11 291 3.2 8.0 0.00 7.87 0.00 93 1018.9
20260502122010 11 338 1.6 12.9 0.00 7.90 0.00 93 1018.9
20260502121526 11 44 3.2 12.9 0.00 7.90 0.00 93 1018.8
20260502121011 11 328 3.2 9.7 0.00 7.90 0.00 93 1018.8
20260502120507 11 329 1.6 9.7 0.00 7.90 0.00 93 1018.8
20260502115507 11 34 3.2 12.9 0.00 7.90 0.00 93 1018.7
20260502115007 11 286 1.6 9.7 0.00 7.92 0.00 93 1018.5
20260502114523 11 32 1.6 6.4 0.00 7.92 0.00 92 1018.4
20260502114007 11 344 1.6 4.8 0.00 7.92 0.00 92 1018.4
20260502113507 11 247 1.6 4.8 0.00 7.92 0.00 92 1018.6
20260502113033 11 26 0.0 6.4 0.00 7.92 0.00 92 1018.5
20260502112507 11 265 1.6 6.4 0.00 7.92 0.00 92 1018.6
20260502112006 11 13 1.6 12.9 0.00 7.95 0.00 92 1018.5
20260502111524 11 15 3.2 12.9 0.00 7.95 0.00 92 1018.4
20260502111010 11 16 1.6 6.4 0.00 7.95 0.00 92 1018.2
20260502110507 11 61 1.6 9.7 0.00 7.95 0.00 92 1018.2
20260502110029 11 93 1.6 9.7 0.00 7.95 0.00 92 1018.1
20260502105508 11 9 3.2 9.7 0.00 7.98 0.00 92 1018.0
20260502105014 11 65 1.6 8.0 0.00 7.98 0.00 92 1018.0
20260502104529 11 40 3.2 8.0 0.00 7.98 0.00 92 1018.0
20260502104008 11 319 1.6 8.0 0.00 7.98 0.00 91 1017.9
20260502103508 11 67 3.2 8.0 0.00 7.98 0.00 92 1018.0
20260502103026 11 41 1.6 8.0 0.00 8.00 0.00 91 1017.8
20260502102507 11 330 1.6 8.0 0.00 8.00 0.00 91 1017.9
20260502102009 11 93 1.6 8.0 0.00 8.00 0.00 91 1017.7
20260502101530 11 316 3.2 8.0 0.00 8.00 0.00 91 1017.6
20260502101012 11 34 0.0 6.4 0.00 8.03 0.00 91 1017.5
20260502100511 11 332 1.6 6.4 0.00 8.03 0.00 91 1017.5
20260502091522 12 38 1.6 9.7 0.00 8.08 0.00 91 1016.4
20260502091015 12 221 1.6 9.7 0.00 8.08 0.00 91 1016.4
20260502090507 12 86 3.2 14.5 0.00 8.10 0.00 91 1016.3
20260502071522 12 109 3.2 14.5 0.00 8.23 0.00 92 1016.1
20260502071007 12 93 3.2 14.5 0.00 8.23 0.00 92 1016.1
20260502070507 12 312 3.2 8.0 0.00 8.26 0.00 92 1016.1
20260502070026 12 115 3.2 8.0 0.00 8.26 0.00 92 1016.2
20260502065510 12 93 1.6 14.5 0.00 8.26 0.00 92 1016.3
20260502065011 12 93 3.2 14.5 0.00 8.28 0.00 92 1016.3
20260502064531 12 316 3.2 12.9 0.00 8.28 0.00 92 1016.2
20260502064016 13 69 3.2 11.3 0.00 8.28 0.00 93 1016.2
20260502063509 13 287 3.2 11.3 0.00 8.31 0.00 93 1016.4
20260502063024 13 65 3.2 9.7 0.00 8.31 0.00 93 1016.3
20260502062514 13 55 3.2 19.3 0.00 8.31 0.00 93 1016.2
20260502062011 13 9 4.8 19.3 0.00 8.33 0.00 93 1016.1
20260502061525 13 21 3.2 14.5 0.00 8.33 0.00 93 1016.1
20260502061011 13 32 3.2 14.5 0.00 8.33 0.00 93 1016.0
20260502060510 13 16 3.2 14.5 0.00 8.36 0.00 93 1016.0
20260502060028 13 80 1.6 14.5 0.00 8.36 0.00 93 1016.0
20260502055506 13 48 4.8 16.1 0.00 8.36 0.00 93 1016.0
20260502055010 13 65 4.8 19.3 0.00 8.38 0.00 93 1016.0
20260502054526 13 84 4.8 19.3 0.00 8.38 0.00 93 1016.0
20260502054007 13 80 4.8 16.1 0.00 8.41 0.00 94 1016.0
20260502053508 13 71 3.2 14.5 0.00 8.43 0.00 94 1016.0
20260502053027 13 238 3.2 14.5 0.00 8.46 0.00 94 1016.0
20260502052512 13 16 3.2 14.5 0.00 8.48 0.00 94 1016.0
20260502052008 13 92 4.8 14.5 0.00 8.51 0.00 94 1015.9
20260502051522 13 79 4.8 12.9 0.00 8.51 0.00 94 1015.7
20260502051010 13 38 4.8 12.9 0.00 8.53 0.00 94 1015.8
20260502050509 13 83 3.2 14.5 0.00 8.56 0.00 94 1015.9
20260502050027 13 141 1.6 14.5 0.00 8.61 0.00 94 1015.6
20260502045510 13 117 6.4 14.5 0.00 8.66 8.61 94 1015.6
20260502045015 13 63 3.2 16.1 0.00 8.74 8.61 94 1015.4
20260502044528 13 295 3.2 16.1 0.00 8.84 8.61 94 1015.3
20260502044011 13 61 3.2 16.1 0.00 9.09 8.61 94 1015.3
20260502043514 13 330 4.8 12.9 0.00 9.14 8.61 94 1015.4
20260502043023 13 117 4.8 11.3 0.00 9.14 8.61 94 1015.3
20260502042512 13 67 4.8 12.9 0.00 9.14 8.61 94 1015.6
20260502042012 13 137 1.6 12.9 0.00 9.14 8.61 94 1015.8
20260502041529 13 57 4.8 17.7 0.00 9.14 8.61 94 1015.9
20260502041013 13 332 4.8 17.7 0.00 9.14 8.61 94 1015.8
20260502040510 13 221 4.8 17.7 0.00 9.14 8.61 94 1015.5
20260502040026 13 72 3.2 14.5 0.00 9.14 8.61 94 1015.4
20260502035507 13 265 1.6 14.5 0.00 9.14 8.61 95 1015.3
20260502035010 13 99 3.2 14.5 0.00 9.14 8.61 94 1015.3
20260502034526 13 74 3.2 16.1 0.00 9.14 8.61 95 1015.4
20260502034010 13 131 1.6 17.7 0.00 9.14 8.61 94 1015.5
20260502033509 13 80 3.2 17.7 0.03 9.14 8.61 94 1015.5
20260502033025 13 51 1.6 17.7 0.03 9.14 8.61 94 1015.4
20260502032514 13 123 3.2 17.7 0.03 9.14 8.61 94 1015.3
20260502032008 13 93 4.8 19.3 0.03 9.14 8.61 94 1015.0
20260502031522 13 236 3.2 19.3 0.03 9.14 8.61 95 1015.0
20260502031009 13 51 6.4 20.9 0.03 9.14 8.61 95 1015.0
20260502030510 13 43 4.8 22.5 0.03 9.14 8.61 95 1015.0
20260502030026 13 11 6.4 22.5 0.03 9.14 8.61 95 1014.7
20260502025508 13 9 3.2 19.3 0.03 9.14 8.61 95 1014.7
20260502025011 13 108 6.4 19.3 0.05 9.14 8.61 95 1014.6
20260502024528 13 342 4.8 17.7 0.05 9.14 8.61 95 1014.4
20260502024009 13 116 4.8 20.9 0.08 9.14 8.61 95 1013.9
20260502023508 13 90 6.4 20.9 0.05 9.12 8.59 95 1013.9
20260502023030 13 93 4.8 17.7 0.08 9.12 8.59 95 1013.9
20260502022509 13 51 4.8 16.1 0.10 9.12 8.59 95 1013.8
20260502022015 13 49 4.8 16.1 0.10 9.12 8.59 95 1013.7
20260502021530 13 49 4.8 16.1 0.10 9.12 8.59 95 1013.9
20260502021007 13 330 3.2 16.1 0.13 9.12 8.59 95 1013.7
20260502020511 13 9 6.4 16.1 0.15 9.12 8.59 95 1013.3
20260502020033 14 105 6.4 16.1 0.76 9.12 8.59 95 1013.5
20260502015509 14 88 4.8 16.1 1.63 9.12 8.59 95 1013.5
20260502015011 14 141 4.8 16.1 1.68 9.09 8.56 95 1013.4
20260502014526 14 321 4.8 16.1 1.70 9.09 8.56 95 1013.4
20260502014008 14 214 4.8 17.7 1.68 9.07 8.53 95 1013.1
20260502013509 15 93 3.2 17.7 1.68 9.07 8.53 95 1013.4
20260502013028 15 15 6.4 17.7 1.68 9.04 8.51 95 1013.3
20260502012507 15 298 4.8 14.5 1.65 9.02 8.48 95 1013.1
20260502012010 15 41 3.2 12.9 1.68 9.02 8.48 95 1013.1
20260502011530 15 22 3.2 16.1 1.70 9.02 8.48 95 1013.1
20260502011011 15 29 4.8 16.1 1.70 8.99 8.46 95 1013.0
20260502010516 15 13 3.2 14.5 1.73 8.97 8.43 95 1012.8
20260502010025 15 63 4.8 19.3 1.14 8.36 7.82 95 1012.6
20260502005510 15 338 4.8 22.5 0.30 7.49 6.96 95 1012.6
20260502005012 15 21 6.4 22.5 0.28 7.42 6.88 95 1012.8
20260502004528 15 41 4.8 16.1 0.30 7.39 6.86 95 1013.0
20260502004008 15 319 4.8 12.9 0.36 7.39 6.86 95 1013.5
20260502003509 15 298 3.2 9.7 0.41 7.39 6.86 95 1013.1
20260502003024 15 88 1.6 14.5 0.41 7.37 6.83 95 1012.4
20260502002514 15 265 3.2 14.5 0.41 7.37 6.83 95 1012.1
20260502002014 15 101 4.8 14.5 0.38 7.34 6.81 95 1011.7
20260502001528 15 75 4.8 14.5 0.38 7.32 6.78 95 1011.9
20260502001009 15 319 4.8 14.5 0.36 7.29 6.76 95 1012.0
20260502000510 15 67 3.2 9.7 0.33 7.24 6.71 95 1012.2
20260502000030 15 116 3.2 16.1 0.33 7.21 6.68 95 1011.9
20260501235508 15 84 4.8 16.1 0.41 7.19 6.65 95 1012.0
20260501235003 15 58 3.2 14.5 0.48 7.14 6.60 95 1012.1
20260501234509 15 41 4.8 12.9 0.46 7.09 6.55 95 1012.1
20260501234005 15 67 3.2 12.9 0.41 7.04 6.50 95 1012.8
20260501233506 15 9 3.2 14.5 0.36 6.99 6.45 95 1012.5
20260501233011 15 26 3.2 14.5 0.33 6.96 6.43 95 1012.1
20260501232504 15 55 6.4 14.5 0.33 6.96 6.43 95 1011.5
20260501232007 15 298 3.2 20.9 0.33 6.96 6.43 95 1010.5
20260501231509 15 92 3.2 20.9 0.30 6.93 6.40 95 1010.2
20260501231005 15 112 6.4 20.9 0.30 6.93 6.40 95 1009.8
20260501230506 15 53 8.0 14.5 0.28 6.91 6.38 95 1010.0
20260501230010 16 93 4.8 14.5 0.25 6.88 6.35 95 1011.0
20260501225506 16 238 1.6 14.5 0.15 6.78 6.25 95 1010.9
20260501225010 16 85 4.8 24.1 0.03 6.65 6.12 95 1011.1
20260501224509 16 23 3.2 24.1 0.00 6.63 6.10 95 1011.5
20260501224003 16 9 4.8 16.1 0.00 6.63 6.10 95 1010.7
20260501223503 16 126 4.8 16.1 0.00 6.63 6.10 95 1010.1
20260501223011 16 55 4.8 16.1 0.03 6.63 6.10 95 1010.0
20260501222504 16 131 6.4 16.1 0.03 6.63 6.10 95 1009.9
20260501222008 16 88 6.4 14.5 0.03 6.63 6.10 96 1010.2
20260501221516 16 21 1.6 16.1 0.05 6.63 6.10 96 1009.9
20260501221010 16 101 4.8 17.7 0.10 6.63 6.10 96 1009.8
20260501220506 16 110 6.4 17.7 0.13 6.63 6.10 96 1009.9
20260501220011 16 133 4.8 14.5 0.15 6.63 6.10 96 1010.1
20260501215506 16 123 3.2 17.7 0.18 6.63 6.10 96 1010.2
20260501215005 16 135 4.8 17.7 0.18 6.63 6.10 95 1010.3
20260501214510 16 42 4.8 12.9 0.18 6.63 6.10 96 1010.6
20260501214006 16 61 3.2 14.5 0.18 6.63 6.10 96 1010.6
20260501213507 16 83 3.2 14.5 0.20 6.63 6.10 96 1010.7
20260501213014 16 74 3.2 17.7 0.20 6.60 6.07 96 1010.4
20260501212503 16 44 4.8 17.7 0.23 6.60 6.07 96 1010.9
20260501212007 16 85 4.8 12.9 0.25 6.60 6.07 96 1010.9
20260501211513 16 17 3.2 12.9 0.36 6.58 6.05 96 1010.9
20260501211006 16 38 3.2 12.9 0.38 6.53 5.97 96 1010.8
20260501210505 16 67 3.2 17.7 0.36 6.50 5.94 96 1010.8
20260501210010 16 272 4.8 17.7 0.36 6.48 5.92 96 1010.6
20260501205508 16 291 4.8 14.5 0.36 6.45 5.92 96 1010.0
20260501205006 16 329 4.8 14.5 0.41 6.45 5.92 96 1009.6
20260501204505 16 131 3.2 11.3 0.41 6.45 5.92 96 1009.6
20260501204003 16 123 3.2 11.3 0.41 6.45 5.92 96 1009.8
20260501203503 16 265 1.6 12.9 0.41 6.43 5.89 96 1009.7
20260501203006 16 58 4.8 12.9 0.38 6.40 5.87 96 1009.4
20260501202504 17 76 3.2 8.0 0.38 6.38 5.84 96 1009.8
20260501202004 16 83 3.2 9.7 0.41 6.35 5.82 96 1009.6
20260501201505 16 291 1.6 9.7 0.36 6.22 5.69 96 1009.5
20260501201006 16 109 1.6 8.0 0.28 6.15 5.61 96 1009.9
20260501200508 16 79 3.2 12.9 0.30 6.15 5.61 96 1009.3
20260501200012 16 85 4.8 12.9 0.28 6.12 5.59 96 1009.4
20260501195504 17 25 3.2 12.9 0.36 6.10 5.56 96 1009.3
20260501195004 17 26 3.2 9.7 0.46 6.05 5.51 96 1009.3
20260501194504 17 76 3.2 11.3 0.51 6.05 5.51 96 1009.2
20260501194005 17 18 3.2 11.3 0.51 6.05 5.51 96 1009.1
20260501193504 17 82 3.2 11.3 0.48 5.99 5.49 96 1009.4
20260501193013 17 331 1.6 9.7 0.48 5.99 5.49 96 1009.2
20260501192504 17 153 3.2 9.7 0.48 5.97 5.46 96 1009.1
20260501192004 17 60 3.2 9.7 0.46 5.92 5.41 96 1009.2
20260501191506 17 113 3.2 9.7 0.46 5.87 5.31 96 1009.3
20260501191004 17 63 1.6 9.7 1.04 5.87 5.31 96 1009.6
20260501190506 17 93 1.6 9.7 1.14 5.84 5.28 95 1009.5
20260501190005 17 284 3.2 9.7 1.14 5.84 5.28 95 1009.6
20260501185504 17 78 3.2 14.5 1.07 5.74 5.21 96 1009.4
20260501185002 17 30 4.8 14.5 0.94 5.59 5.05 96 1010.1
20260501184507 17 78 1.6 12.9 1.02 5.54 5.00 96 1009.5
20260501184005 17 75 3.2 11.3 1.32 5.54 5.00 96 1009.2
20260501183503 17 84 3.2 16.1 1.60 5.54 5.00 96 1009.9
20260501183005 17 74 4.8 16.1 1.80 5.54 5.00 96 1009.2
20260501182503 17 46 3.2 12.9 1.83 5.51 4.98 96 1008.5
20260501182007 17 140 4.8 14.5 1.93 5.49 4.95 95 1008.2
20260501181507 17 105 6.4 14.5 1.91 5.41 4.88 95 1008.7
20260501181004 17 86 6.4 11.3 1.32 4.83 4.29 95 1009.4
20260501180504 17 298 3.2 9.7 1.19 4.70 4.17 95 1010.0
20260501180009 17 284 3.2 12.9 1.19 4.70 4.17 95 1008.5
20260501175505 17 34 4.8 14.5 1.17 4.67 4.14 95 1008.8
20260501175005 17 108 4.8 14.5 1.14 4.65 4.11 95 1009.0
20260501174508 17 111 6.4 12.9 1.27 4.52 3.99 95 1009.1
20260501174004 17 82 4.8 12.9 0.97 4.22 3.68 95 1009.5
20260501173505 17 88 4.8 14.5 0.69 3.94 3.40 95 1010.2